#timestamp,LO_Frequency,Hit,StdDev 
1506139215.2,286047010.7,N
1506139235.0,286047012.2,Y
1506139236.0,286047012.2,P
1506139255.8,286047002.8,N
1506139275.6,286046999.9,N
1506139295.4,286047002.3,N
1506139315.4,286046998.1,N
1506139335.2,286047000.4,N
1506139355.1,286046999.7,N
1506139356.0,286046999.7,N
1506139375.8,286047000.2,N
1506139395.6,286047001.6,N
1506139415.4,286047001.4,N
1506139435.3,286047004.0,N
1506139455.1,286046999.8,N
1506139475.8,286046995.8,N
1506139495.7,286046990.6,N
1506139515.5,286046987.4,N
1506139535.3,286046983.8,N
1506139555.2,286046982.5,N
1506139575.9,286046981.4,N
1506139595.7,286046977.5,N
1506139615.6,286046976.3,N
1506139635.4,286046975.0,N
1506139655.2,286046973.5,N
1506139675.0,286046971.8,N
1506139676.0,286046971.8,N
1506139695.8,286046968.0,N
1506139715.6,286046966.9,N
1506139735.4,286046966.4,N
1506139755.3,286046965.3,N
1506139775.1,286046963.2,N
1506139795.8,286046963.2,N
1506139815.7,286046963.3,N
1506139835.5,286046964.5,N
1506139855.3,286046968.9,N
1506139875.2,286046969.0,N
1506139895.9,286046968.9,N
1506139915.7,286046968.7,N
1506139935.6,286046970.0,N
1506139955.4,286046972.4,N
1506139975.2,286046971.6,N
1506139995.0,286046968.8,N
1506139996.0,286046968.8,N
1506140015.8,286046963.0,Y
1506140035.6,286046985.4,P
1506140055.5,286046986.1,N
1506140075.3,286046982.6,P
1506140095.1,286046983.2,Y
1506140115.9,286047000.0,P
1506140135.7,286047003.5,N
1506140155.5,286047001.9,N
1506140175.3,286047002.2,N
1506140195.2,286047002.0,N
1506140215.0,286046997.6,N
1506140215.9,286046997.6,N
1506140235.7,286046995.4,N
1506140255.6,286047000.2,N
1506140275.4,286047005.1,N
1506140295.2,286047009.1,N
1506140315.1,286047009.9,N
1506140316.0,286047009.9,N
1506140335.8,286047011.5,N
1506140355.6,286047012.8,N
1506140375.5,286047014.2,N
1506140395.3,286047015.6,N
1506140415.1,286047014.6,N
1506140435.9,286047015.3,N
1506140455.7,286047015.6,N
1506140475.5,286047015.5,N
1506140495.4,286047014.4,N
1506140515.2,286047018.8,N
1506140535.0,286047019.1,N
1506140535.9,286047019.1,N
1506140555.7,286047020.8,N
1506140575.6,286047021.6,N
1506140595.4,286047021.1,N
1506140615.2,286047018.9,N
1506140635.1,286047021.8,N
1506140636.0,286047021.8,N
1506140655.8,286047026.1,Y
1506140675.6,286047016.1,P
1506140695.5,286047015.5,P
1506140715.3,286047015.6,P
1506140735.1,286047008.9,Y
1506140755.9,286046997.8,P
1506140775.7,286047001.2,N
1506140795.5,286047000.7,N
1506140815.4,286046997.5,N
1506140835.2,286046997.1,N
1506140855.0,286046995.4,N
1506140855.9,286046995.4,N
1506140875.8,286046995.2,N
1506140895.6,286046998.2,N
1506140915.4,286046998.6,N
1506140935.3,286046998.8,N
1506140955.1,286047002.8,N
1506140956.0,286047002.8,N
1506140975.8,286047001.6,N
1506140995.7,286046998.2,N
1506141015.5,286046997.6,N
1506141035.3,286046994.8,N
1506141055.2,286046992.3,N
1506141075.9,286046990.5,N
1506141095.7,286046988.9,N
1506141115.5,286046986.9,N
1506141135.4,286046986.5,N
1506141155.2,286046985.0,N
1506141175.0,286046986.3,N
1506141175.9,286046986.3,N
1506141195.8,286046984.0,N
1506141215.6,286046987.6,N
1506141235.4,286046989.5,N
1506141255.3,286046988.8,N
1506141275.1,286046987.6,N
1506141276.0,286046987.6,N
1506141295.8,286046988.2,N
1506141315.7,286046987.5,N
1506141335.5,286046986.9,N
1506141355.3,286046992.9,N
1506141375.2,286046992.0,N
1506141395.9,286046993.9,N
1506141415.7,286046996.5,N
1506141435.6,286046998.9,N
1506141455.4,286047000.5,N
1506141475.2,286047000.7,N
1506141495.0,286046997.0,N
1506141496.0,286046997.0,N
1506141515.8,286046996.8,N
1506141535.6,286046995.6,N
1506141555.4,286046994.8,N
1506141575.3,286046992.0,N
1506141595.1,286046995.3,N
1506141615.8,286046997.3,N
1506141635.7,286046997.0,N
1506141655.5,286046999.5,N
1506141675.3,286046995.9,N
1506141695.2,286046993.1,N
1506141715.9,286046990.8,N
1506141735.7,286046991.7,N
1506141755.6,286046991.3,N
1506141775.4,286046987.0,Y
1506141795.2,286046994.5,P
1506141815.1,286046991.8,P
1506141816.0,286046991.8,P
1506141835.8,286046993.3,Y
1506141855.6,286047001.7,P
1506141875.5,286047000.8,N
1506141895.3,286046998.7,N
1506141915.1,286046998.7,N
1506141935.9,286046997.9,N
1506141955.7,286046997.8,N
1506141975.5,286046998.3,N
1506141995.3,286047000.5,N
1506142015.2,286046999.5,N
1506142035.0,286046996.6,N
1506142035.9,286046996.6,N
1506142055.7,286046997.7,N
1506142075.6,286046997.4,N
1506142095.4,286046997.6,N
1506142115.2,286046997.0,N
1506142135.1,286046996.5,N
1506142136.0,286046996.5,N
1506142155.8,286046996.0,N
1506142175.6,286046994.0,Y
1506142195.5,286046997.9,P
1506142215.3,286047000.3,P
1506142235.1,286046996.9,N
1506142255.9,286046995.0,Y
1506142275.7,286046999.4,P
1506142295.5,286046998.2,P
1506142315.4,286047000.8,N
1506142335.2,286047000.3,N
1506142355.0,286047000.1,N
1506142355.9,286047000.1,N
1506142375.8,286046997.3,N
1506142395.6,286046995.1,Y
1506142415.4,286046997.6,P
1506142435.3,286047000.9,N
1506142455.1,286047001.4,N
1506142456.0,286047001.4,N
1506142475.8,286047005.7,Y
1506142495.7,286047003.0,P
1506142515.5,286047004.3,N
1506142535.3,286047002.8,N
1506142555.2,286046992.2,Y
1506142575.9,286046990.6,P
1506142595.7,286046995.0,N
1506142615.6,286046999.7,N
1506142635.4,286047003.1,N
1506142655.2,286047004.6,N
1506142675.1,286047007.8,N
1506142676.0,286047007.8,N
1506142695.8,286047009.8,N
1506142715.6,286047011.5,N
1506142735.4,286047011.5,N
1506142755.3,286047011.9,N
1506142775.1,286047013.6,N
1506142795.8,286047014.0,N
